Simultaneous Nadir Overpasses (SNOs) Predictions

Prediction of SNOs between AQUA and METOP-A Satellite Orbit:

Table of predicted SNOs for the next 14.0 days since TLE Epoch: 10/9/2015
Index Date (AQUA) Time (AQUA) Lat,Lon (AQUA) SZA (AQUA ) Date (METOP-A) Time (METOP-A) Lat,Lon (METOP-A) SZA (METOP-A ) Distance(km) Time Diff (sec)
1 10/10/2015 15:36:45 -73.31, 121.10 100.10 10/10/2015 15:35:39 -73.22, 118.28 100.14 90.84 66
2 10/10/2015 16:26:25 73.95, -72.64 80.58 10/10/2015 16:26:04 73.97, -72.66 80.60 2.11 21
3 10/10/2015 17:15:52 -74.03, 94.82 99.33 10/10/2015 17:16:44 -74.04, 94.85 99.32 1.42 52
4 10/13/2015 11:11:03 -73.51,-172.88 98.84 10/13/2015 11:09:54 -73.47,-174.75 98.84 59.14 69
5 10/13/2015 12:00:39 73.95, -6.19 81.63 10/13/2015 12:00:24 73.97, -6.26 81.65 3.19 15
6 10/13/2015 12:50:06 -74.03, 161.27 98.28 10/13/2015 12:51:04 -74.05, 161.26 98.26 2.13 58
7 10/16/2015 06:45:21 -73.73,-106.90 97.57 10/16/2015 06:44:10 -73.67,-107.88 97.61 31.15 71
8 10/16/2015 07:34:53 73.96, 60.22 82.68 10/16/2015 07:34:44 73.97, 60.14 82.69 2.65 9
9 10/16/2015 08:24:20 -74.04,-132.31 97.23 10/16/2015 08:25:24 -74.05,-132.33 97.22 1.25 64
10 10/19/2015 02:19:38 -73.91, -40.86 96.36 10/19/2015 02:18:25 -73.92, -40.90 96.34 1.59 73
11 10/19/2015 03:09:06 73.99, 126.60 83.74 10/19/2015 03:09:02 74.01, 126.65 83.76 2.89 4
12 10/19/2015 03:58:33 -74.06, -65.93 96.18 10/19/2015 03:59:43 -74.04, -65.94 96.20 2.19 70
13 10/21/2015 21:53:51 -73.95, 25.49 95.31 10/21/2015 21:52:43 -73.96, 25.61 95.29 3.80 68
14 10/21/2015 22:43:19 73.98,-166.93 84.74 10/21/2015 22:43:22 74.00,-166.97 84.76 2.56 3




NCC Satellite Simultaneous Nadir Overpasses (SNOs) Prediction Service
